GEFSMA_con_probscp_312.txt.gz
Probability
0 0 0 0 0 0 0 0 1 4 5 4 2 1 0 0 0 0 1 2 2 2 1 0 0 0 1 0 0 0 0 0 0 1 2 3 3 3 2 1 1 1 0
0 0 0 0 0 0 0 0 1 3 4 3 1 0 0 0 0 0 0 1 1 1 0 0 0 0 1 0 0 0 0 0 0 0 1 2 2 2 2 2 1 0 0
0 0 0 0 0 0 0 0 1 1 1 1 0 0 0 0 0 0 0 0 0 0 0 1 0 0 0 0 0 0 0 0 0 0 0 1 1 1 1 2 1 0 0
0 0 0 0 0 0 0 1 1 0 0 0 0 0 0 0 0 0 0 0 0 0 0 0 0 0 0 0 0 1 0 0 0 1 1 0 0 0 1 1 1 0 0
0 0 0 0 0 0 0 1 2 1 0 0 0 0 0 0 0 0 0 0 0 0 0 0 0 0 0 0 0 0 0 0 0 0 1 1 0 0 1 1 0 1 1
1 1 2 1 1 1 1 1 2 1 0 0 0 0 0 0 0 0 0 0 0 0 0 0 0 0 0 0 0 0 0 0 0 0 0 0 0 0 1 1 1 1 2
4 4 4 3 2 2 2 1 1 1 0 0 0 0 0 0 0 0 0 0 0 0 0 0 0 0 0 0 0 0 0 0 0 0 0 0 0 0 0 0 0 1 1
6 6 5 4 3 3 3 2 2 1 1 1 0 0 0 0 0 0 0 0 0 0 0 0 0 0 0 0 0 0 0 0 0 0 0 0 0 0 0 0 0 0 0
7 6 5 3 3 3 3 3 2 2 2 1 0 0 0 0 0 0 0 0 0 1 0 0 1 1 1 0 0 0 0 0 0 0 0 0 0 1 1 1 0 1 1
6 5 4 3 2 2 2 2 1 1 2 1 0 0 0 0 0 0 0 0 0 0 0 0 1 1 1 0 0 0 0 0 0 0 0 1 1 1 1 1 1 1 2
5 3 2 3 2 1 1 1 1 1 1 1 0 0 0 0 0 0 0 0 0 0 0 0 1 1 0 0 0 0 0 0 0 0 0 1 1 1 1 2 1 1 1
2 1 1 2 2 1 0 1 1 1 2 2 2 1 0 0 0 0 0 0 0 0 0 0 0 0 0 0 0 0 0 0 0 0 0 0 0 0 1 2 2 2 1
1 1 1 1 1 0 0 1 2 2 3 4 4 2 1 1 0 0 0 0 0 0 0 0 0 0 0 0 0 0 0 0 0 0 0 0 0 0 0 1 1 2 2
1 1 2 2 1 0 0 1 3 3 3 3 3 2 1 1 1 0 0 0 0 0 0 0 0 0 0 0 0 0 0 0 0 0 0 0 0 0 0 0 0 1 1
1 1 3 3 2 1 0 1 2 2 2 2 1 0 1 1 1 1 0 0 0 0 0 0 0 0 0 0 0 0 0 0 0 0 0 0 0 0 0 0 0 0 0
1 2 4 4 3 1 0 0 1 1 1 1 1 0 0 0 0 1 0 0 0 0 0 0 0 0 0 0 0 0 0 0 0 0 0 0 0 0 0 0 0 0 0
4 4 5 5 3 1 1 1 2 1 1 2 1 1 1 1 1 2 1 0 0 0 0 0 0 0 0 0 0 0 0 0 0 0 0 0 0 0 0 0 0 0 0
8 7 6 5 4 2 2 3 3 3 3 4 4 3 3 2 3 3 2 1 0 0 0 0 0 0 0 0 0 0 0 0 0 0 0 0 0 0 0 0 0 0 0
10 9 7 5 4 3 4 6 6 5 5 7 7 6 5 4 4 3 3 2 0 0 0 0 0 0 0 0 0 0 0 0 0 0 0 0 0 0 0 0 0 0 0
10 10 9 7 5 3 5 8 9 8 9 10 11 9 6 5 5 4 3 2 1 0 0 0 0 0 0 0 0 0 0 0 0 0 0 0 0 0 0 0 0 0 0
11 11 11 10 8 6 7 10 11 11 12 14 13 12 9 7 6 4 3 3 2 1 1 1 0 0 0 1 1 0 0 0 0 0 0 0 0 0 0 0 0 0 0
13 13 13 13 13 10 9 10 10 11 13 15 14 14 12 9 6 5 3 3 2 2 2 2 1 1 1 1 2 1 0 0 0 0 0 0 0 0 0 0 0 0 0
15 15 15 16 17 14 11 9 9 9 11 12 12 12 12 9 7 6 4 3 2 3 3 3 3 2 1 1 2 2 1 0 0 0 0 0 0 0 0 0 0 0 0
16 16 16 17 18 15 11 8 7 8 9 9 9 10 9 8 7 7 6 4 3 3 3 3 3 2 1 0 1 1 1 0 1 1 0 0 0 0 0 0 0 0 0
17 17 17 16 16 14 10 6 4 5 7 7 7 7 8 7 6 7 7 6 4 3 3 2 2 2 1 0 0 1 1 2 2 2 1 0 0 0 0 0 0 0 0
19 19 18 16 16 13 9 5 3 4 5 6 6 7 7 7 6 5 6 6 5 4 3 2 1 1 0 0 0 1 2 3 3 2 1 1 1 0 0 0 0 0 0

GEFSMA_con_probscp_318.txt.gz
Probability
0 0 0 0 0 0 0 1 2 3 3 3 3 3 3 3 2 1 0 0 1 2 2 1 0 1 1 1 2 2 1 1 2 2 1 0 1 2 3 2 1 2 2
0 0 0 0 0 0 0 1 2 2 3 3 3 3 3 3 2 1 0 0 0 1 2 1 0 0 1 1 2 2 2 1 1 1 0 0 1 2 3 2 1 1 1
0 0 0 0 0 0 0 0 1 1 1 1 2 3 3 3 2 1 0 0 0 0 1 1 0 0 0 1 1 1 2 2 2 2 1 0 0 1 2 2 2 2 1
0 0 0 0 0 0 0 0 0 0 0 0 1 2 3 3 2 1 0 0 0 0 0 0 0 0 0 0 0 0 1 1 3 3 2 0 0 1 1 1 1 2 2
0 0 0 0 0 0 0 0 0 0 0 0 0 1 2 1 1 0 0 0 0 0 0 0 0 0 0 0 0 0 0 1 2 2 1 0 0 0 0 0 0 1 2
0 0 0 0 0 0 0 0 0 0 0 0 0 0 0 0 0 0 0 0 0 0 0 0 0 0 0 0 0 0 0 0 1 1 0 0 0 0 0 0 0 0 1
0 0 0 0 0 0 0 0 0 0 0 0 0 0 0 0 0 0 0 0 0 0 0 0 0 0 0 0 0 0 0 0 0 0 0 0 0 0 0 0 0 0 0
2 2 2 1 1 1 1 0 0 0 0 0 0 0 0 0 0 0 0 0 0 0 0 0 0 0 0 0 0 0 0 0 0 0 0 0 0 0 0 0 0 0 0
5 4 3 2 3 3 2 0 0 0 0 0 0 0 0 0 0 0 0 0 0 0 0 0 0 0 0 0 0 0 0 0 0 0 0 0 0 0 0 0 0 0 0
5 4 2 1 2 2 1 0 0 0 0 0 0 0 0 0 0 0 0 0 0 0 0 0 0 0 0 0 0 0 0 0 0 0 0 0 0 0 0 0 0 0 0
2 1 0 0 0 0 0 0 0 0 1 1 1 0 0 0 0 0 0 0 0 0 0 0 0 0 0 1 0 0 0 0 0 0 0 0 0 0 1 0 0 0 0
0 0 0 0 0 0 0 0 0 0 1 1 1 0 0 0 0 1 1 1 1 0 0 0 0 0 0 1 0 0 0 0 0 0 0 0 0 0 0 0 0 0 0
1 0 0 0 0 0 0 0 0 0 0 0 0 0 1 1 1 2 2 2 2 1 1 0 0 0 0 1 0 0 0 0 0 0 0 0 0 0 0 0 0 0 0
2 1 0 0 0 0 0 0 0 0 0 0 0 1 2 2 3 3 3 3 3 2 1 0 0 0 0 0 0 0 0 0 0 0 0 0 0 0 0 0 0 0 0
3 2 1 0 0 0 0 0 0 0 0 0 0 1 2 3 3 3 3 3 3 3 1 0 0 0 0 0 0 0 0 0 0 0 0 0 0 0 0 0 0 0 0
3 3 1 1 1 2 1 1 1 0 0 0 0 2 3 3 3 3 3 3 3 2 1 0 0 0 0 0 0 0 0 0 0 0 0 0 0 0 0 0 0 0 0
4 4 3 2 3 4 3 2 1 0 0 1 2 4 4 4 3 3 3 3 3 2 1 0 0 0 0 0 0 0 0 0 0 0 0 0 0 0 0 0 0 0 0
4 4 3 2 3 4 3 3 2 1 1 3 5 6 5 4 3 3 3 3 3 2 1 0 0 0 0 0 0 0 0 0 0 0 0 0 0 0 0 0 0 0 0
4 4 3 2 3 4 4 4 3 3 3 4 6 6 6 5 4 3 3 4 3 2 1 0 0 0 0 0 0 0 0 0 0 0 0 0 0 0 0 0 0 0 0
5 4 3 3 4 5 6 6 6 5 4 4 5 6 6 6 6 5 4 5 4 2 1 0 0 0 0 0 0 0 0 0 0 0 0 0 0 0 0 0 0 0 0
4 4 5 5 6 7 7 8 7 6 6 5 4 5 5 6 7 5 4 5 5 3 2 1 0 0 0 0 0 0 0 0 0 0 0 0 0 1 1 1 0 0 0
3 5 6 8 9 8 7 6 5 7 7 6 5 4 4 5 6 5 4 3 3 3 3 4 3 1 1 2 1 1 1 1 1 1 0 0 1 2 2 2 1 0 0
4 5 7 9 10 10 6 3 2 5 7 7 6 6 6 6 6 6 5 4 3 2 3 5 6 5 5 4 3 3 2 2 2 2 1 0 1 2 3 2 1 0 0
7 7 7 8 9 9 5 1 1 3 6 7 7 8 9 8 6 6 7 7 6 5 4 5 7 7 7 6 5 4 4 4 4 3 2 2 2 3 3 3 1 0 0
10 9 7 7 8 9 5 2 1 4 6 8 9 9 9 7 5 5 6 8 8 7 5 5 5 5 5 5 5 5 6 5 5 5 5 5 5 5 4 3 2 0 0
11 9 7 6 9 10 7 2 2 5 8 10 11 9 7 5 3 3 5 8 8 7 6 5 4 3 3 3 4 5 6 6 6 6 6 6 6 6 6 4 2 0 0

GEFSMA_con_probscp_324.txt.gz
Probability
3 3 3 2 2 2 4 6 7 7 7 6 5 4 3 2 1 0 0 1 2 2 3 3 3 3 3 3 2 2 1 1 2 2 1 0 1 2 3 2 1 0 0
3 3 3 2 1 2 3 5 7 7 7 7 6 6 6 4 2 1 1 1 1 1 2 3 2 1 2 1 1 2 1 0 1 1 0 1 2 2 2 2 1 0 0
2 2 2 2 2 2 3 4 6 8 8 8 7 7 7 4 2 1 1 2 1 0 1 1 0 0 1 0 1 1 1 0 0 0 0 1 2 2 1 1 0 0 0
1 1 1 2 2 2 2 3 6 9 9 7 6 6 5 3 2 1 1 2 2 0 0 0 0 1 1 0 0 1 1 0 0 0 0 0 1 1 0 0 0 0 0
1 0 0 1 1 1 1 3 5 7 6 4 3 3 4 3 2 1 1 1 1 0 0 1 1 2 2 1 0 0 0 0 0 0 0 0 0 0 0 0 0 0 0
2 1 0 0 0 0 1 2 3 3 3 2 2 2 3 3 3 3 3 1 0 0 0 1 2 3 3 2 0 0 0 0 0 0 0 0 0 0 0 0 0 0 0
2 2 1 1 1 1 1 1 1 1 1 1 2 2 2 2 2 3 4 3 1 1 1 1 2 3 3 2 0 0 0 0 0 0 0 0 0 0 0 0 0 0 0
1 1 1 1 1 2 1 0 0 0 0 1 3 4 2 1 0 1 3 3 3 2 2 1 2 3 4 2 1 0 0 0 0 0 0 1 1 1 1 1 0 0 0
0 0 0 0 1 1 1 0 0 0 0 1 2 4 3 1 1 1 2 3 3 3 3 2 2 3 3 3 2 1 1 0 0 0 0 1 2 2 2 1 0 0 0
1 1 1 0 0 0 0 0 0 0 1 1 2 3 4 4 4 3 3 3 3 3 3 2 2 2 2 3 3 2 1 0 0 0 0 1 2 1 1 1 0 0 0
2 2 2 2 1 0 0 0 1 1 2 3 3 4 6 8 8 7 6 4 2 1 2 3 3 2 2 3 3 1 0 0 0 0 0 0 0 0 0 0 0 0 0
4 3 4 4 2 1 1 1 2 4 4 5 6 7 8 9 9 8 7 4 2 1 1 2 3 2 1 1 1 0 0 0 0 0 0 0 0 0 0 0 0 0 0
5 4 5 5 3 2 2 2 4 6 7 7 9 10 11 10 9 8 7 5 4 2 1 1 1 2 1 0 0 0 0 0 0 0 0 0 0 0 0 0 0 0 0
6 5 5 5 4 3 2 3 5 7 10 11 11 12 13 12 10 9 8 6 5 4 2 1 1 1 1 1 1 1 1 0 0 0 0 0 0 0 0 0 0 0 0
7 6 5 5 4 4 4 4 5 8 11 13 13 14 15 14 13 11 9 8 7 6 4 2 1 1 1 1 2 2 2 1 0 0 0 0 0 0 0 0 0 0 0
8 7 5 5 5 6 6 5 6 8 11 13 15 16 17 16 16 14 11 10 9 7 5 2 1 1 2 2 2 3 3 2 1 0 0 0 0 0 0 0 0 0 0
8 8 7 6 6 6 6 6 6 8 10 13 15 16 18 18 18 17 13 12 11 9 5 2 0 1 2 2 3 3 2 2 1 0 0 0 0 0 0 0 0 0 0
7 6 6 5 6 6 7 8 8 9 11 14 16 18 19 20 20 18 16 14 13 11 7 3 1 1 2 3 5 5 3 1 1 0 0 0 0 0 0 0 0 0 0
7 5 3 3 4 6 7 9 11 12 13 16 18 20 20 21 20 19 18 17 14 11 9 6 3 3 3 5 6 5 3 1 1 0 0 0 0 0 0 0 0 0 0
9 6 4 4 5 6 7 8 10 13 16 18 19 21 21 21 21 20 19 18 14 12 10 7 5 4 4 7 9 6 3 2 2 1 0 0 0 0 0 0 0 0 0
10 9 7 7 7 6 5 6 8 12 18 21 22 21 20 20 18 16 15 14 14 14 12 8 6 5 6 8 10 9 7 5 5 4 3 2 1 1 1 1 0 0 0
11 11 11 11 10 7 4 3 5 11 19 24 24 23 21 20 17 13 9 7 10 12 12 10 7 6 6 8 10 11 11 9 8 8 7 5 4 4 4 3 2 1 0
14 14 13 13 12 9 5 2 3 10 19 23 24 24 23 22 20 17 11 8 8 8 8 10 10 8 8 9 10 11 12 12 12 11 10 8 7 6 6 5 3 1 0
17 16 14 14 13 10 6 2 3 9 16 20 21 23 24 22 20 19 17 15 13 9 7 8 10 9 8 8 10 11 13 14 13 12 10 9 9 8 7 6 4 1 0
17 17 16 15 15 12 8 4 5 10 15 16 17 18 18 17 14 12 14 16 15 12 8 7 8 7 6 5 7 12 15 15 14 12 11 10 9 9 8 7 6 3 2
18 18 17 16 17 16 10 5 6 12 14 14 15 14 12 11 8 7 11 14 14 12 9 7 6 5 5 4 5 12 16 15 14 12 11 10 10 10 9 9 8 6 5

GEFSMA_con_probscp_330.txt.gz
Probability
7 7 8 9 7 6 7 8 7 6 7 6 4 3 1 1 2 5 7 8 7 7 8 9 7 5 3 2 2 3 5 4 2 0 0 0 1 2 2 1 0 0 0
10 9 8 7 7 7 8 8 6 5 6 6 5 3 2 1 2 4 6 7 8 9 9 9 7 5 3 1 1 2 4 4 1 0 0 0 0 1 1 0 0 0 0
12 10 8 7 7 8 7 7 5 4 4 4 4 3 3 3 3 5 8 10 10 10 10 9 8 7 4 2 1 2 3 2 1 0 0 0 0 0 0 0 0 0 0
10 9 8 7 8 8 7 5 5 5 4 3 3 3 3 4 4 5 9 13 13 10 10 10 10 9 7 4 2 2 2 1 0 0 0 0 0 0 0 0 0 0 0
7 8 9 8 7 7 6 6 7 8 7 4 3 3 4 4 5 6 8 11 13 11 10 11 11 10 9 7 4 3 2 1 0 0 0 0 0 0 0 0 0 0 0
5 6 8 8 7 6 7 7 10 11 9 6 3 3 3 4 5 7 8 8 9 10 10 10 10 8 8 8 6 4 3 2 2 1 0 0 0 0 0 0 0 0 0
5 6 7 8 8 9 8 7 8 9 8 6 4 3 4 4 4 7 7 6 6 7 7 7 8 8 8 7 7 5 4 4 4 3 1 1 1 1 2 1 1 0 0
7 7 8 7 8 9 8 6 6 6 7 8 7 5 6 6 4 4 5 4 4 5 5 5 8 10 11 10 7 6 6 6 6 5 5 4 3 3 3 2 1 0 0
10 9 7 6 6 6 7 6 5 7 8 8 8 7 7 8 6 4 4 4 4 4 4 3 6 11 15 15 12 9 9 8 7 7 7 7 6 4 3 3 2 1 1
11 10 9 8 7 6 7 7 7 8 10 9 9 9 10 10 9 8 6 5 4 3 2 3 4 8 14 17 16 13 9 7 7 8 8 8 8 6 4 3 3 2 2
11 11 11 11 11 11 11 10 10 12 12 12 12 14 15 15 15 13 11 8 5 3 3 4 5 7 9 12 12 10 8 6 5 6 7 8 8 6 4 4 4 4 4
12 12 12 13 14 16 17 16 16 15 14 13 15 16 18 19 19 17 14 11 7 5 3 4 6 8 7 5 4 4 5 4 3 3 4 6 6 5 4 5 5 5 5
13 13 14 16 17 17 18 19 19 18 16 14 14 16 17 19 18 17 15 12 9 5 3 2 5 7 7 4 1 0 2 2 1 1 1 2 3 3 3 5 5 5 4
12 13 16 19 18 14 14 17 18 20 20 18 16 17 18 19 18 17 16 16 12 7 4 3 4 5 7 6 3 1 1 1 0 0 0 0 1 1 2 3 3 3 2
12 13 16 19 17 13 13 14 16 20 22 22 21 22 22 21 18 18 19 21 17 11 8 7 5 3 4 5 4 3 3 2 1 0 0 0 0 0 1 1 1 1 0
14 14 15 17 16 13 13 15 16 17 21 23 24 27 26 23 19 18 20 22 20 16 13 11 8 5 4 4 4 4 5 4 2 1 1 0 0 0 0 0 0 0 0
16 16 16 16 15 12 12 14 16 16 18 22 25 27 26 24 22 20 20 20 20 19 15 12 10 8 8 8 7 7 6 5 4 3 2 1 0 0 0 0 0 0 0
19 19 20 20 17 15 13 14 16 17 17 19 23 25 24 24 24 24 23 22 21 20 17 13 11 9 10 11 12 11 8 7 6 4 3 1 1 1 0 0 0 0 0
24 25 26 25 23 21 19 18 18 19 18 19 21 22 24 25 25 26 26 25 23 22 20 17 13 10 9 10 12 12 10 10 9 7 4 2 2 2 1 0 0 0 0
30 30 30 28 26 24 22 22 22 21 21 21 21 22 24 23 23 24 25 25 25 25 24 21 17 13 10 9 11 12 11 12 12 10 7 4 4 3 1 0 0 0 0
33 34 32 28 25 22 18 18 19 19 20 22 23 24 23 19 18 19 19 19 21 23 24 21 18 16 13 12 12 11 10 11 13 12 10 8 6 5 4 2 1 0 0
36 37 35 30 24 19 13 11 13 15 18 22 25 25 21 16 15 15 13 12 14 16 17 18 18 18 16 14 12 10 9 11 13 13 13 12 10 9 8 6 3 1 1
42 42 39 33 27 19 11 8 8 11 17 22 25 25 21 17 15 15 12 10 10 10 10 12 14 14 13 12 11 10 10 11 13 13 12 12 11 11 10 8 6 3 1
46 44 40 36 30 20 11 6 6 10 16 21 24 24 22 18 15 13 13 12 12 11 7 6 7 8 7 7 7 8 9 11 11 11 10 10 10 10 9 8 6 3 1
44 41 38 36 30 20 10 5 6 12 17 21 23 22 20 17 11 9 10 14 16 14 8 4 4 4 2 2 3 5 7 8 8 8 9 9 9 9 8 7 6 3 1
41 37 36 36 30 19 9 4 6 13 19 21 22 20 16 13 9 6 9 13 16 14 9 6 5 3 1 0 1 3 5 6 6 7 10 11 10 9 8 7 6 4 1

GEFSMA_con_probscp_336.txt.gz
Probability
0 0 0 0 0 1 2 2 2 2 3 3 3 3 3 2 1 0 1 3 4 6 5 3 2 2 2 1 0 0 0 0 0 0 0 0 0 0 0 0 0 0 1
0 0 0 0 0 0 1 1 1 1 2 2 2 2 3 2 1 0 0 1 3 4 4 2 2 3 3 2 1 0 0 0 0 0 0 0 0 0 0 0 0 0 1
0 0 0 0 0 0 0 0 0 0 1 1 1 1 1 1 1 0 0 0 1 1 1 1 2 3 3 2 1 0 0 1 1 0 0 0 0 0 0 0 0 0 1
0 0 0 0 0 0 0 0 0 0 0 0 0 0 0 0 0 0 0 0 0 0 0 1 2 3 3 2 0 0 0 1 1 0 0 0 0 0 0 0 0 0 0
1 1 1 1 0 0 0 0 0 0 0 0 0 0 0 0 0 0 0 0 0 0 0 1 2 3 3 2 1 1 1 1 1 0 0 0 0 0 0 0 0 0 0
2 2 2 1 0 0 0 0 0 0 0 0 0 0 0 0 0 0 0 0 0 0 0 0 1 2 3 3 2 3 3 3 2 1 1 2 2 1 1 1 0 0 1
2 2 1 1 0 0 0 0 0 0 0 0 0 0 0 0 0 0 0 0 0 0 0 0 0 0 2 2 3 4 5 4 4 4 4 5 5 5 4 3 1 1 2
1 1 0 0 0 0 0 0 0 0 1 1 0 0 0 0 0 0 0 0 0 0 0 0 0 0 0 1 1 3 5 6 6 6 7 7 8 8 8 5 3 3 3
0 0 0 0 0 0 0 0 0 0 1 1 0 0 0 0 0 0 0 0 0 0 0 0 0 0 0 0 0 1 4 5 6 7 7 7 7 8 8 6 5 4 4
0 0 0 0 0 0 0 0 0 0 0 0 0 0 0 0 0 0 0 0 0 0 0 0 1 1 1 1 0 1 3 4 5 6 6 5 5 5 6 5 5 5 5
1 0 0 0 0 0 0 0 0 1 1 0 0 1 1 1 1 0 0 0 0 0 0 0 1 2 2 1 0 1 2 3 4 4 4 4 4 4 3 3 3 4 5
2 1 1 0 0 0 0 0 0 2 2 1 1 1 2 2 2 1 0 0 0 0 0 0 1 1 1 0 0 0 1 2 3 3 4 4 4 4 3 2 1 2 3
4 3 3 2 2 1 1 0 0 2 3 4 3 2 2 3 2 1 0 0 0 0 0 0 0 0 0 0 0 0 0 1 1 2 3 3 3 3 2 2 1 0 1
6 6 6 5 5 4 3 1 1 2 4 5 5 4 3 3 2 0 0 0 0 1 1 0 0 0 0 0 0 0 0 0 0 1 1 1 1 1 1 1 0 0 0
7 8 8 7 6 6 5 4 3 4 5 6 6 5 5 4 3 1 0 0 1 2 2 1 0 0 0 0 0 0 0 1 0 0 0 0 0 0 0 0 0 0 0
8 9 9 8 6 6 6 6 5 6 6 6 6 6 6 6 5 3 2 1 2 3 2 1 0 0 0 0 0 0 0 0 0 0 0 0 0 0 0 0 0 0 0
9 10 10 8 6 6 6 7 7 7 7 7 7 7 8 7 6 6 5 4 3 3 3 1 0 0 0 0 1 1 1 1 1 1 1 1 1 0 0 0 0 0 0
10 11 11 8 7 7 7 8 9 9 8 9 9 9 9 7 6 7 7 6 5 5 3 2 2 1 1 1 2 2 2 2 2 2 2 2 2 1 0 0 0 0 0
10 10 10 9 8 9 9 10 10 10 9 10 10 10 9 7 6 7 7 7 6 6 4 3 3 3 2 3 3 2 1 1 1 1 3 3 2 1 0 0 0 0 0
11 10 10 10 11 11 12 12 13 12 10 9 9 9 9 8 7 7 8 7 6 5 5 4 3 3 3 3 2 1 0 0 0 1 2 2 1 1 0 0 0 0 0
14 12 11 12 13 14 13 13 12 12 10 9 9 9 9 9 7 6 6 6 5 4 4 3 2 2 2 1 1 0 0 0 0 0 1 1 1 1 1 1 0 0 0
17 15 13 14 14 14 12 9 8 9 9 8 8 9 9 9 8 6 4 3 3 3 3 2 1 1 1 0 0 0 0 0 0 0 0 0 1 3 3 2 1 0 0
17 15 13 12 13 11 8 5 5 6 6 5 6 7 7 8 8 7 4 2 2 3 3 2 1 1 0 0 0 0 0 0 0 0 0 0 2 4 4 3 1 0 0
16 14 11 10 10 9 6 4 3 3 3 3 3 5 6 7 8 7 5 4 3 2 2 2 2 2 1 0 0 0 0 0 0 0 0 0 1 2 3 2 1 0 0
14 14 12 11 10 8 5 3 1 1 1 1 3 5 6 7 7 6 6 5 4 3 2 1 1 1 1 0 0 0 0 0 0 0 0 0 0 0 1 1 0 0 0
13 14 14 12 10 8 4 1 0 0 0 1 3 6 6 6 6 5 5 5 4 3 2 2 1 1 0 0 0 0 0 0 0 0 0 0 0 0 0 0 0 0 0

GEFSMA_con_probscp_342.txt.gz
Probability
0 0 0 0 1 2 2 2 2 2 3 3 3 3 2 2 1 1 1 0 0 0 0 1 2 3 4 2 1 0 0 0 0 1 1 1 0 0 0 0 0 0 0
0 0 0 0 0 1 1 1 1 1 2 2 2 2 1 1 1 1 1 0 0 0 0 0 1 1 2 1 0 0 0 0 1 1 1 1 0 0 0 0 0 0 0
0 0 0 0 0 0 0 0 0 0 1 1 1 1 0 0 0 1 1 0 0 1 1 1 0 0 0 0 0 0 1 1 1 0 0 0 0 0 0 0 0 0 0
0 0 0 0 0 0 0 0 0 0 0 0 0 0 0 0 0 0 0 1 1 2 2 1 0 0 0 0 0 0 2 2 1 0 0 0 0 0 0 0 0 0 0
0 0 0 0 0 0 0 0 0 0 0 0 0 0 0 0 0 0 0 1 2 3 2 1 1 0 0 0 0 0 1 2 1 1 1 1 0 0 0 0 0 0 1
0 0 0 0 0 0 0 0 0 0 0 0 0 0 0 0 0 0 0 1 2 3 3 2 1 0 0 0 0 0 1 2 3 2 2 2 2 2 2 1 1 1 2
0 1 1 1 0 0 0 0 0 0 0 0 0 0 0 0 0 0 0 0 1 1 2 1 1 0 0 0 0 0 1 2 3 3 3 3 4 4 4 4 3 2 3
1 2 2 1 0 0 0 0 0 0 0 0 0 0 0 0 0 0 0 0 0 0 0 0 0 0 0 0 0 0 1 1 2 3 3 3 4 4 5 4 3 2 2
1 1 1 0 0 0 0 0 0 0 0 0 0 0 0 0 0 0 0 0 0 0 0 0 0 0 0 0 0 0 0 0 1 1 2 3 3 4 4 4 4 3 2
1 0 0 0 0 0 0 0 0 0 0 1 1 0 0 0 0 0 0 0 0 0 0 0 0 0 0 0 0 0 0 0 0 0 1 2 3 4 4 4 5 5 5
0 0 0 0 0 0 0 0 0 0 1 2 2 1 0 0 0 0 0 0 0 0 0 0 0 0 0 0 0 0 0 0 0 0 0 0 1 3 4 5 5 6 6
0 0 0 0 0 0 0 0 0 0 1 2 3 2 1 1 0 0 0 0 0 0 0 0 0 0 0 0 0 0 0 0 0 0 0 0 0 1 3 4 5 6 6
0 0 0 0 0 0 0 0 0 0 1 2 3 3 3 2 1 0 0 0 0 0 0 0 0 0 1 1 0 0 0 0 0 0 0 0 0 0 1 2 3 4 4
1 1 1 1 2 1 1 1 1 0 1 2 3 4 4 4 3 1 0 0 0 0 0 0 0 1 2 2 1 0 0 0 0 0 0 0 0 0 0 0 1 1 1
2 2 3 4 5 4 4 4 3 1 1 2 3 5 5 6 5 3 1 1 1 1 1 1 0 1 2 2 1 0 0 0 0 1 1 0 0 0 0 0 0 0 0
3 3 3 4 6 6 6 5 4 3 2 2 3 5 7 8 8 6 4 3 3 3 3 2 1 1 1 1 0 0 0 1 1 1 1 0 0 0 0 0 0 0 0
3 3 3 4 5 6 6 6 4 3 3 3 3 4 7 9 10 9 8 6 4 4 3 3 3 2 2 2 1 0 0 1 1 1 1 0 0 0 0 0 0 0 0
3 3 4 4 5 6 6 6 5 4 4 4 4 5 8 10 10 10 10 9 7 6 4 4 4 3 3 3 2 0 0 0 1 0 0 0 0 0 0 0 0 0 0
5 5 5 6 7 7 7 7 7 7 7 8 8 8 9 10 10 11 11 11 11 9 6 5 5 4 3 2 1 0 0 0 0 0 0 0 0 0 0 0 0 0 0
7 7 7 8 8 9 8 7 8 9 10 10 10 10 9 9 10 11 12 12 12 10 8 7 5 3 2 1 0 0 0 0 0 0 0 0 0 0 0 0 0 0 0
9 8 8 7 8 9 8 7 8 10 12 11 10 9 8 7 8 9 8 8 9 8 7 6 4 2 1 0 0 0 0 0 0 0 0 0 0 0 0 0 0 0 0
9 8 8 8 8 10 9 7 7 10 11 9 7 7 6 5 5 6 5 4 5 5 4 4 3 3 2 1 0 0 0 0 0 0 0 0 0 0 0 0 0 0 0
8 8 8 9 10 10 10 7 7 9 8 5 4 4 4 4 5 5 5 4 3 3 3 3 3 3 3 2 1 0 0 0 0 0 0 0 0 0 0 0 0 0 0
6 6 8 8 9 10 9 7 6 7 5 3 2 3 3 4 4 5 6 5 5 4 3 3 3 3 3 2 1 1 1 0 0 0 0 0 0 0 0 0 0 0 0
6 6 7 8 9 10 9 6 5 5 3 2 2 2 1 1 2 3 3 4 5 5 4 3 3 2 2 1 1 1 0 0 0 1 1 1 0 0 0 0 0 0 0
7 7 7 9 10 11 9 5 3 4 3 1 1 1 0 0 0 1 2 3 4 4 4 3 2 1 1 1 1 0 0 0 1 2 2 2 1 0 0 0 0 0 0

GEFSMA_con_probscp_348.txt.gz
Probability
0 1 0 0 0 0 1 2 2 1 3 5 6 6 6 6 4 3 3 3 2 1 1 2 2 1 1 3 4 4 4 2 1 1 1 0 0 0 0 0 0 0 0
1 1 1 1 1 1 1 1 1 1 3 4 4 5 6 5 4 3 3 3 2 1 1 1 2 1 1 3 5 6 5 3 1 2 2 1 0 1 1 0 0 0 0
0 0 1 2 2 2 1 0 0 1 2 3 3 4 4 4 3 3 3 4 3 2 1 1 2 2 3 4 5 6 6 4 2 2 2 1 1 2 2 1 0 0 0
0 0 1 2 3 3 1 0 0 1 2 3 3 3 3 3 3 3 4 4 4 3 2 2 2 3 4 4 4 4 5 4 3 3 3 2 2 3 2 1 0 0 0
0 0 0 1 2 2 1 0 0 0 1 2 2 2 3 3 3 3 3 4 4 3 3 3 3 4 5 6 4 3 4 4 3 3 3 2 2 3 2 1 0 0 0
0 0 0 0 2 2 1 0 0 0 0 1 1 2 4 4 3 4 3 3 3 3 3 3 4 4 5 5 3 3 3 3 3 3 3 2 2 3 2 1 0 0 0
0 0 0 0 2 3 1 0 0 0 0 0 1 2 3 4 5 4 4 3 3 3 3 4 4 4 4 3 3 2 2 1 1 2 2 1 2 2 2 2 1 1 0
0 0 0 0 2 3 2 1 1 1 1 1 1 1 2 4 5 5 4 4 3 3 3 3 4 3 4 4 4 3 2 1 0 1 1 0 0 0 1 1 2 2 2
0 0 0 0 0 1 2 2 2 2 2 3 2 2 3 3 4 6 6 6 5 5 4 3 2 3 4 6 6 4 1 0 0 0 0 0 0 0 0 1 2 3 3
0 0 0 0 0 0 1 1 2 3 4 4 5 6 6 6 5 6 7 8 8 7 5 4 3 2 3 6 7 4 1 0 0 0 0 0 0 0 0 0 1 3 4
1 0 0 0 0 0 1 1 3 4 6 6 6 7 9 9 8 7 8 9 9 8 6 6 5 3 2 5 6 4 1 0 0 0 0 0 0 0 0 1 1 2 3
4 2 1 1 1 1 2 4 5 5 7 8 8 9 9 9 9 9 9 9 9 8 7 7 6 4 2 3 4 3 0 0 0 0 0 0 0 0 0 1 2 2 1
8 6 4 3 3 3 3 5 5 6 6 8 9 10 10 9 10 10 10 10 10 9 7 6 6 5 3 3 4 2 0 0 0 0 0 0 0 0 0 1 1 1 0
10 9 7 6 5 4 4 4 5 6 7 7 7 9 11 12 12 12 11 11 10 9 7 7 8 8 6 5 4 2 1 0 0 0 0 0 0 0 0 0 0 0 0
11 11 10 9 7 6 6 5 5 8 10 8 7 9 11 13 13 13 12 13 12 10 8 9 10 10 7 5 3 3 3 1 0 0 0 0 0 0 0 0 0 0 0
16 16 15 13 11 11 10 8 7 9 11 10 10 11 13 13 13 13 14 14 14 12 10 11 12 11 8 5 4 3 3 1 0 0 0 0 0 0 0 0 0 0 0
21 21 21 18 15 14 14 13 10 11 13 13 13 14 14 14 12 13 13 13 12 12 11 11 12 11 9 8 6 5 3 3 2 0 0 0 0 0 0 0 0 0 0
21 22 22 20 16 15 17 18 17 15 16 15 15 15 16 14 13 13 13 12 11 10 10 10 10 9 9 9 9 7 4 3 2 1 0 0 0 0 0 0 0 0 0
22 22 23 22 19 17 18 21 22 20 18 17 16 16 16 14 13 14 14 13 12 11 10 10 10 9 8 8 9 7 5 3 2 0 0 0 0 0 0 0 0 0 0
22 25 27 26 23 21 21 23 24 22 22 21 19 18 16 12 11 13 14 14 14 13 12 12 10 8 7 7 8 7 6 5 2 0 0 0 0 0 0 0 0 0 0
22 26 30 29 25 23 23 23 23 22 23 24 22 18 14 10 9 11 12 13 14 14 14 13 11 9 7 7 7 8 7 6 4 2 1 0 0 0 0 0 0 0 0
25 27 30 28 25 23 21 17 17 20 22 22 22 18 12 8 7 8 9 9 10 11 12 12 11 10 9 8 9 9 9 7 5 3 2 1 1 1 1 0 0 0 0
29 30 30 27 25 22 15 9 10 17 20 20 19 16 12 9 7 7 6 5 6 6 7 8 9 9 8 8 9 9 9 8 7 5 2 1 1 2 2 1 0 0 0
31 31 29 27 25 20 11 3 6 16 21 21 19 16 13 11 8 6 6 5 5 4 3 4 5 5 5 5 6 8 8 8 7 5 2 1 1 2 1 1 0 0 0
30 30 28 27 26 20 10 3 5 15 22 22 21 17 13 9 6 5 5 5 5 5 3 2 2 2 2 2 3 5 6 5 5 3 2 2 2 2 2 1 0 0 0
29 28 28 28 27 21 11 4 5 14 21 21 21 18 12 7 4 4 5 5 6 6 4 1 1 1 1 1 2 3 4 4 3 3 3 4 3 3 3 2 1 0 0

GEFSMA_con_probscp_354.txt.gz
Probability
2 2 3 5 5 4 2 1 1 1 2 1 0 1 2 3 3 3 3 3 4 4 4 4 5 5 5 5 5 5 4 3 3 3 3 3 2 1 0 0 0 1 3
3 4 5 5 5 4 3 2 2 2 2 2 1 0 1 3 3 3 3 4 4 4 4 4 6 6 6 6 6 6 5 5 5 4 3 3 2 1 0 0 0 1 4
4 4 5 5 5 5 4 3 3 3 3 2 1 0 2 4 4 3 4 5 5 5 5 6 7 7 7 6 6 7 6 6 6 5 4 3 2 0 0 0 0 2 4
5 5 5 5 5 5 4 4 3 3 3 2 0 1 4 6 6 5 6 7 9 10 9 9 9 9 7 7 6 7 7 5 5 5 4 3 2 1 0 1 1 2 3
7 7 6 6 6 5 4 4 3 3 4 3 1 1 4 7 8 8 8 9 11 12 11 9 10 10 9 8 7 8 7 6 4 5 4 3 2 1 1 2 3 3 3
8 8 8 8 8 7 5 4 4 4 5 4 2 2 3 7 9 10 11 11 11 12 11 10 10 10 8 8 8 8 8 6 4 4 4 3 2 1 2 3 3 2 1
8 8 8 9 9 7 6 6 7 7 6 6 6 5 5 6 8 9 11 11 11 11 11 11 12 10 8 7 6 7 8 7 5 4 4 4 3 3 3 3 1 1 0
8 7 7 8 8 7 7 9 11 11 8 8 9 8 8 7 7 8 9 10 11 12 11 12 13 13 11 9 7 6 7 7 6 4 4 5 5 4 3 2 1 0 0
9 8 7 7 7 8 9 11 14 14 11 9 9 8 8 8 8 7 7 8 10 12 12 12 13 16 18 17 12 7 6 6 4 4 5 6 5 4 2 1 0 0 0
14 12 9 9 9 9 10 12 14 14 12 9 8 9 9 9 8 7 6 7 8 10 12 12 13 17 21 22 18 12 6 4 3 4 6 6 6 4 2 1 1 0 0
18 17 15 15 14 12 12 14 15 15 14 11 10 11 12 11 10 7 6 6 7 8 10 12 14 16 18 19 18 13 7 2 2 4 5 6 6 5 3 2 2 1 0
18 19 21 22 20 17 19 20 19 17 16 15 14 13 13 12 12 11 9 7 7 7 10 12 15 15 13 12 12 9 4 1 0 2 3 4 5 4 3 2 2 2 1
18 20 24 25 24 23 24 25 24 21 20 18 16 14 13 12 14 16 14 10 8 8 10 13 15 15 11 7 5 3 1 0 0 0 1 1 2 1 1 1 2 2 2
18 21 25 27 27 26 27 27 27 26 26 22 17 14 13 13 15 17 17 14 11 9 11 14 15 15 12 7 3 2 1 0 0 0 0 0 0 0 0 0 1 1 1
21 25 28 29 29 29 31 31 29 28 29 26 19 15 14 15 15 16 17 16 14 12 13 14 14 15 14 9 5 4 2 1 0 0 0 0 0 0 0 0 0 0 0
28 32 34 33 32 33 36 35 31 28 28 27 23 19 17 16 16 16 17 18 18 16 15 13 12 12 12 11 8 6 4 1 0 0 0 0 0 0 0 0 0 0 0
35 36 37 36 33 33 35 35 30 26 25 25 22 19 18 17 16 16 17 18 21 20 16 13 11 11 12 12 10 8 6 3 2 0 0 0 0 0 0 0 0 0 0
39 37 36 35 31 31 31 31 28 25 25 24 21 19 18 18 18 18 18 21 23 21 18 14 12 12 13 12 11 8 6 5 4 1 0 0 0 0 0 0 0 0 0
38 35 33 32 31 30 29 29 29 28 28 26 23 21 20 21 22 22 22 24 23 19 17 16 14 12 11 10 8 5 4 4 3 2 0 0 0 0 0 0 0 0 0
34 31 29 29 30 30 29 30 31 33 31 29 28 26 24 23 23 23 23 23 20 17 16 15 14 10 8 6 6 4 3 2 2 2 1 0 0 0 0 0 0 0 0
28 27 27 27 28 27 26 26 29 33 34 32 32 30 26 21 18 18 19 18 16 15 14 14 11 9 7 6 7 6 4 4 4 3 3 2 1 0 0 0 0 0 0
24 24 25 26 24 21 18 17 21 28 33 34 34 31 25 19 16 14 12 10 10 11 12 13 12 10 9 10 11 10 8 6 5 5 5 4 3 2 1 1 0 0 0
24 26 27 26 24 19 13 10 12 21 29 33 35 33 26 21 19 17 14 9 7 8 10 12 12 11 9 10 12 10 8 6 6 6 6 5 5 4 3 2 0 0 0
28 28 28 27 26 19 13 10 11 18 26 31 33 34 30 24 21 19 17 13 10 9 9 8 9 8 6 6 7 7 6 5 5 6 6 5 5 5 4 2 1 0 0
28 26 24 26 26 20 13 10 12 18 24 25 26 25 24 21 17 15 15 15 13 11 9 6 4 3 2 1 2 4 5 4 4 5 5 4 4 4 4 3 1 0 0
24 22 20 22 24 19 14 10 10 17 22 20 18 16 14 14 12 10 11 14 13 11 10 6 2 1 0 0 1 3 5 4 4 4 4 2 2 2 3 3 2 1 0